Date String (YYYY-MM-DD hh:mm:ss) UTC,Instrument flags,Ambient pressure (hPa),Sample flow (lpm),Bypass flow (lpm),Sample temperature (°C),Ambient temperature (°C),ASC tube jacket temperature (°C),LED temperature (°C),Box temperature (°C),Sample RH (%),Span deviation,Mass concentration (μg/m³),Mass concentration (μg/m³),Mass concentration (μg/m³)
DateTimeUTC,F1_M11,P_M11,Q1_M11,Q2_M11,T1_M11,T2_M11,T3_M11,T4_M11,T5_M11,U1_M11,ZSPAN_M11,X0_M11,X2_M11,X1_M11
2022-10-24 16:00:00,,0820.9,4.98,0.00,23.0,21.8,00.0,31.7,24.9,12.1,0000.0,0008.20,0003.44,0003.17
2022-10-24 16:01:00,,0820.8,5.02,0.00,23.0,21.9,00.0,31.7,24.9,12.1,0000.0,0007.90,0003.46,0003.17
2022-10-24 16:02:00,,0820.9,4.98,0.00,23.0,21.9,00.0,31.8,25.0,11.8,0000.0,0007.22,0003.42,0003.16
2022-10-24 16:03:00,,0820.8,5.02,0.00,23.0,21.9,00.0,31.8,25.0,11.5,0000.0,0006.71,0003.39,0003.15
2022-10-24 16:04:00,,0820.7,5.00,0.00,23.1,21.9,00.0,31.8,25.0,11.1,0000.0,0006.52,0003.36,0003.12
2022-10-24 16:05:00,,0820.7,4.97,0.00,23.1,21.9,00.0,31.8,25.0,11.9,0000.0,0005.87,0003.31,0003.09
2022-10-24 16:06:00,,0820.7,5.03,0.00,23.1,21.9,00.0,31.8,25.0,12.2,0000.0,0004.66,0003.31,0003.07
2022-10-24 16:07:00,,0820.7,5.00,0.00,23.1,21.9,00.0,31.8,25.1,12.6,0000.0,0005.87,0003.32,0003.07
2022-10-24 16:08:00,,0820.7,5.00,0.00,23.1,21.9,00.0,31.8,25.1,12.3,0000.0,0006.26,0003.31,0003.08
2022-10-24 16:09:00,,0820.6,4.99,0.00,23.1,21.9,00.0,31.9,25.1,12.4,0000.0,0006.17,0003.29,0003.08
2022-10-24 16:10:00,,0820.6,4.99,0.00,23.2,21.9,00.0,31.9,25.1,12.2,0000.0,0006.17,0003.30,0003.08
2022-10-24 16:11:00,,0820.6,5.01,0.00,23.2,21.9,00.0,31.9,25.1,11.9,0000.0,0006.14,0003.31,0003.11
2022-10-24 16:12:00,,0820.6,4.98,0.00,23.2,21.9,00.0,31.9,25.2,12.4,0000.0,0007.42,0003.32,0003.12
2022-10-24 16:13:00,,0820.6,5.02,0.00,23.2,22.0,00.0,31.9,25.1,12.8,0000.0,0008.30,0003.38,0003.14
2022-10-24 16:14:00,,0820.6,4.99,0.00,23.2,22.0,00.0,31.9,25.2,12.8,0000.0,0008.90,0003.42,0003.16
2022-10-24 16:15:00,,0820.6,5.02,0.00,23.2,22.0,00.0,31.9,25.2,12.5,0000.0,0009.24,0003.47,0003.19
2022-10-24 16:16:00,,0820.6,4.97,0.00,23.2,22.0,00.0,31.9,25.2,12.1,0000.0,0009.31,0003.50,0003.21
2022-10-24 16:17:00,,0820.6,5.00,0.00,23.2,22.0,00.0,32.0,25.2,11.9,0000.0,0009.25,0003.49,0003.21
2022-10-24 16:18:00,,0820.6,5.00,0.00,23.2,22.0,00.0,32.0,25.2,11.7,0000.0,0008.70,0003.46,0003.20
2022-10-24 16:19:00,,0820.6,5.00,0.00,23.3,22.0,00.0,32.0,25.2,11.5,0000.0,0008.52,0003.45,0003.19
2022-10-24 16:20:00,,0820.6,5.00,0.00,23.3,22.0,00.0,32.0,25.2,11.5,0000.0,0008.99,0003.45,0003.18
2022-10-24 16:21:00,,0820.6,5.01,0.00,23.3,22.1,00.0,32.0,25.2,11.1,0000.0,0009.40,0003.43,0003.18
2022-10-24 16:22:00,,0820.6,5.00,0.00,23.3,22.1,00.0,32.0,25.2,11.0,0000.0,0009.53,0003.41,0003.16
2022-10-24 16:23:00,,0820.7,5.00,0.00,23.3,22.1,00.0,32.0,25.2,10.7,0000.0,0008.59,0003.36,0003.13
2022-10-24 16:24:00,,0820.6,5.00,0.00,23.3,22.1,00.0,32.0,25.3,10.8,0000.0,0007.92,0003.31,0003.09
2022-10-24 16:25:00,,0820.6,4.99,0.00,23.3,22.2,00.0,32.1,25.3,11.0,0000.0,0007.19,0003.28,0003.05
2022-10-24 16:26:00,,0820.6,5.00,0.00,23.3,22.2,00.0,32.1,25.3,10.9,0000.0,0006.65,0003.23,0003.00
2022-10-24 16:27:00,,0820.6,5.00,0.00,23.4,22.2,00.0,32.1,25.3,10.8,0000.0,0007.15,0003.19,0002.96
2022-10-24 16:28:00,,0820.6,5.00,0.00,23.4,22.2,00.0,32.1,25.3,11.2,0000.0,0008.37,0003.18,0002.91
2022-10-24 16:29:00,,0820.7,5.00,0.00,23.4,22.2,00.0,32.1,25.3,11.1,0000.0,0008.71,0003.17,0002.88
2022-10-24 16:30:00,,0820.6,4.99,0.00,23.4,22.2,00.0,32.1,25.4,11.2,0000.0,0008.80,0003.14,0002.85
2022-10-24 16:31:00,,0820.6,5.00,0.00,23.4,22.2,00.0,32.1,25.4,11.3,0000.0,0008.38,0003.13,0002.84
2022-10-24 16:32:00,,0820.6,5.00,0.00,23.4,22.3,00.0,32.2,25.4,11.4,0000.0,0008.66,0003.13,0002.83
2022-10-24 16:33:00,,0820.6,4.99,0.00,23.4,22.3,00.0,32.2,25.4,11.3,0000.0,0008.62,0003.16,0002.84
2022-10-24 16:34:00,,0820.6,5.00,0.00,23.5,22.3,00.0,32.2,25.5,11.3,0000.0,0008.63,0003.19,0002.88
2022-10-24 16:35:00,,0820.6,4.99,0.00,23.5,22.3,00.0,32.2,25.5,11.2,0000.0,0008.71,0003.20,0002.90
2022-10-24 16:36:00,,0820.6,5.02,0.00,23.5,22.3,00.0,32.2,25.5,11.0,0000.0,0008.83,0003.22,0002.91
2022-10-24 16:37:00,,0820.6,5.00,0.00,23.5,22.3,00.0,32.2,25.5,10.9,0000.0,0008.94,0003.25,0002.94
2022-10-24 16:38:00,,0820.6,5.00,0.00,23.5,22.3,00.0,32.2,25.5,10.8,0000.0,0008.70,0003.25,0002.94
2022-10-24 16:39:00,,0820.6,5.00,0.00,23.5,22.3,00.0,32.2,25.5,11.1,0000.0,0007.61,0003.25,0002.96
2022-10-24 16:40:00,,0820.6,5.00,0.00,23.5,22.3,00.0,32.3,25.5,11.1,0000.0,0007.02,0003.25,0002.98
2022-10-24 16:41:00,,0820.6,4.99,0.00,23.5,22.3,00.0,32.3,25.5,11.1,0000.0,0006.50,0003.26,0003.01
2022-10-24 16:42:00,,0820.5,5.01,0.00,23.6,22.3,00.0,32.3,25.5,11.0,0000.0,0006.42,0003.28,0003.03
2022-10-24 16:43:00,,0820.5,5.00,0.00,23.6,22.3,00.0,32.3,25.5,10.9,0000.0,0005.57,0003.30,0003.05
2022-10-24 16:44:00,,0820.4,5.00,0.00,23.6,22.3,00.0,32.3,25.6,11.1,0000.0,0005.32,0003.30,0003.07
2022-10-24 16:45:00,,0820.4,5.00,0.00,23.6,22.3,00.0,32.3,25.5,11.2,0000.0,0005.39,0003.31,0003.08
2022-10-24 16:46:00,,0820.5,5.00,0.00,23.6,22.3,00.0,32.3,25.5,11.3,0000.0,0005.45,0003.33,0003.11
2022-10-24 16:47:00,,0820.5,4.99,0.00,23.6,22.3,00.0,32.3,25.5,11.3,0000.0,0005.24,0003.32,0003.12
2022-10-24 16:48:00,,0820.5,5.00,0.00,23.6,22.3,00.0,32.3,25.5,11.1,0000.0,0005.19,0003.30,0003.12
2022-10-24 16:49:00,,0820.6,5.00,0.00,23.6,22.3,00.0,32.3,25.5,11.0,0000.0,0005.70,0003.32,0003.14
2022-10-24 16:50:00,,0820.5,5.00,0.00,23.6,22.3,00.0,32.3,25.5,11.0,0000.0,0005.80,0003.35,0003.15
2022-10-24 16:51:00,,0820.5,5.00,0.00,23.6,22.3,00.0,32.3,25.5,11.0,0000.0,0006.26,0003.36,0003.16
2022-10-24 16:52:00,,0820.5,5.02,0.00,23.6,22.3,00.0,32.3,25.6,11.3,0000.0,0007.12,0003.37,0003.16
2022-10-24 16:53:00,,0820.5,5.00,0.00,23.6,22.4,00.0,32.4,25.6,11.4,0000.0,0007.24,0003.37,0003.16
2022-10-24 16:54:00,,0820.5,5.00,0.00,23.6,22.4,00.0,32.4,25.6,11.3,0000.0,0007.99,0003.37,0003.17
2022-10-24 16:55:00,,0820.5,5.01,0.00,23.7,22.4,00.0,32.4,25.5,11.3,0000.0,0008.57,0003.38,0003.18
2022-10-24 16:56:00,,0820.5,5.00,0.00,23.7,22.4,00.0,32.4,25.6,11.2,0000.0,0008.51,0003.39,0003.20
2022-10-24 16:57:00,,0820.5,4.99,0.00,23.7,22.4,00.0,32.4,25.6,11.2,0000.0,0008.47,0003.38,0003.20
2022-10-24 16:58:00,,0820.4,5.00,0.00,23.7,22.4,00.0,32.4,25.6,11.3,0000.0,0008.45,0003.39,0003.20
2022-10-24 16:59:00,,0820.5,5.00,0.00,23.7,22.5,00.0,32.4,25.6,11.2,0000.0,0008.46,0003.41,0003.21
